| time (UTC) | temp F | wind direction | speed knots | gust knots | rain 1hr in | rain 24hr in | rain mn in | humidity % | barometer mb |
| 20260505230100 | 51 | 215 | 7.0 | 10.4 | 0.16 | 0.22 | 0.22 | 80 | 1004.0 |
| 20260505224537 | 51 | 214 | 3.5 | 6.1 | 0.16 | 0.18 | 0.18 | 79 | 1004.2 |
| 20260505223041 | 50 | 236 | 3.5 | 7.0 | 0.14 | 0.14 | 0.14 | 79 | 1004.1 |
| 20260505221543 | 50 | 182 | 0.9 | 8.7 | 0.10 | 0.10 | 0.10 | 77 | 1004.2 |
| 20260505220049 | 51 | 298 | 2.6 | 13.9 | 0.05 | 0.05 | 0.05 | 69 | 1004.0 |
| 20260505214536 | 54 | 35 | 3.5 | 13.0 | 0.02 | 0.02 | 0.02 | 60 | 1004.6 |
| 20260505213034 | 59 | 225 | 9.6 | 13.9 | 0.00 | 0.00 | 0.00 | 51 | 1004.1 |
| 20260505211531 | 60 | 360 | 7.0 | 16.5 | 0.00 | 0.00 | 0.00 | 46 | 1003.5 |
| 20260505210033 | 60 | 360 | 9.6 | 20.0 | 0.00 | 0.00 | 0.00 | 45 | 1003.5 |
| 20260505204530 | 61 | 360 | 7.8 | 20.9 | 0.00 | 0.00 | 0.00 | 45 | 1003.5 |
| 20260505203028 | 61 | 360 | 7.8 | 17.4 | 0.00 | 0.00 | 0.00 | 45 | 1003.4 |
| 20260505201524 | 60 | 360 | 11.3 | 18.2 | 0.00 | 0.00 | 0.00 | 47 | 1003.7 |
| 20260505200034 | 59 | 360 | 9.6 | 14.8 | 0.00 | 0.00 | 0.00 | 48 | 1003.9 |
| 20260505194522 | 59 | 360 | 7.8 | 13.0 | 0.00 | 0.00 | 0.00 | 48 | 1004.4 |
| 20260505193020 | 59 | 360 | 7.0 | 12.2 | 0.00 | 0.00 | 0.00 | 48 | 1004.4 |
| 20260505191525 | 58 | 360 | 6.1 | 16.5 | 0.00 | 0.00 | 0.00 | 49 | 1004.3 |
| 20260505190015 | 58 | 360 | 7.8 | 16.5 | 0.00 | 0.00 | 0.00 | 50 | 1004.2 |
| 20260505184512 | 57 | 360 | 7.0 | 13.0 | 0.00 | 0.00 | 0.00 | 51 | 1004.2 |
| 20260505183012 | 57 | 360 | 8.7 | 17.4 | 0.00 | 0.00 | 0.00 | 52 | 1004.2 |
| 20260505181509 | 57 | 360 | 8.7 | 16.5 | 0.00 | 0.00 | 0.00 | 52 | 1004.1 |
| 20260505180008 | 56 | 360 | 9.6 | 14.8 | 0.00 | 0.00 | 0.00 | 54 | 1004.0 |
| 20260505174506 | 56 | 360 | 8.7 | 15.6 | 0.00 | 0.00 | 0.00 | 56 | 1004.0 |
| 20260505173004 | 55 | 360 | 5.2 | 11.3 | 0.00 | 0.00 | 0.00 | 57 | 1004.0 |
| 20260505171501 | 55 | 360 | 7.0 | 17.4 | 0.00 | 0.00 | 0.00 | 57 | 1004.1 |
| 20260505164602 | 54 | 360 | 8.7 | 13.0 | 0.00 | 0.00 | 0.00 | 58 | 1003.9 |
| 20260505163103 | 54 | 360 | 9.6 | 15.6 | 0.00 | 0.00 | 0.00 | 57 | 1004.0 |
| 20260505161607 | 53 | 360 | 9.6 | 15.6 | 0.00 | 0.00 | 0.00 | 58 | 1004.0 |
| 20260505153050 | 52 | 360 | 10.4 | 15.6 | 0.00 | 0.00 | 0.00 | 59 | 1003.7 |
| 20260505151547 | 51 | 360 | 9.6 | 13.0 | 0.00 | 0.00 | 0.00 | 61 | 1003.8 |
| 20260505124532 | 46 | 360 | 1.7 | 7.0 | 0.00 | 0.00 | 0.00 | 70 | 1003.1 |
| 20260505123033 | 46 | 360 | 0.0 | 2.6 | 0.00 | 0.00 | 0.00 | 70 | 1002.9 |
| 20260505121534 | 46 | 360 | 1.7 | 4.3 | 0.00 | 0.00 | 0.00 | 70 | 1002.8 |
| 20260505120030 | 46 | 360 | 0.9 | 3.5 | 0.00 | 0.00 | 0.00 | 70 | 1002.8 |
| 20260505114528 | 47 | 360 | 0.9 | 4.3 | 0.00 | 0.00 | 0.00 | 69 | 1002.9 |
| 20260505113027 | 47 | 360 | 2.6 | 7.0 | 0.00 | 0.00 | 0.00 | 70 | 1002.9 |
| 20260505111526 | 47 | 360 | 1.7 | 3.5 | 0.00 | 0.00 | 0.00 | 71 | 1002.9 |
| 20260505101532 | 47 | 360 | 2.6 | 7.8 | 0.00 | 0.00 | 0.00 | 71 | 1002.4 |
| 20260505100021 | 46 | 360 | 6.1 | 9.6 | 0.00 | 0.00 | 0.00 | 72 | 1002.5 |
| 20260505094519 | 47 | 360 | 3.5 | 4.3 | 0.00 | 0.00 | 0.00 | 71 | 1002.6 |
| 20260505093017 | 47 | 360 | 0.9 | 4.3 | 0.00 | 0.00 | 0.00 | 69 | 1002.7 |
| 20260505091516 | 48 | 360 | 3.5 | 9.6 | 0.00 | 0.00 | 0.00 | 67 | 1002.8 |
| 20260505090033 | 48 | 360 | 3.5 | 11.3 | 0.00 | 0.00 | 0.00 | 67 | 1002.9 |
| 20260505084513 | 48 | 360 | 2.6 | 7.0 | 0.00 | 0.00 | 0.00 | 69 | 1003.0 |
| 20260505083012 | 48 | 360 | 1.7 | 5.2 | 0.00 | 0.00 | 0.00 | 70 | 1003.2 |
| 20260505081511 | 48 | 360 | 4.3 | 9.6 | 0.00 | 0.00 | 0.00 | 70 | 1003.1 |
| 20260505080025 | 48 | 360 | 3.5 | 7.8 | 0.00 | 0.00 | 0.00 | 72 | 1002.9 |
| 20260505074507 | 48 | 360 | 2.6 | 7.0 | 0.00 | 0.00 | 0.00 | 74 | 1003.0 |
| 20260505073004 | 48 | 188 | 0.0 | 1.7 | 0.00 | 0.00 | 0.00 | 72 | 1002.9 |
| 20260505071559 | 49 | 360 | 1.7 | 4.3 | 0.00 | 0.00 | 0.00 | 72 | 1002.7 |
| 20260505070058 | 49 | 360 | 1.7 | 4.3 | 0.00 | 0.00 | 0.00 | 72 | 1002.1 |
| 20260505064556 | 50 | 360 | 0.0 | 2.6 | 0.00 | 0.00 | 0.00 | 72 | 1002.2 |
| 20260505063056 | 50 | 360 | 0.9 | 3.5 | 0.00 | 0.00 | 0.00 | 72 | 1002.0 |
| 20260505061554 | 51 | 360 | 4.3 | 9.6 | 0.00 | 0.00 | 0.00 | 71 | 1001.8 |
| 20260505060054 | 51 | 360 | 7.0 | 9.6 | 0.00 | 0.00 | 0.00 | 69 | 1001.4 |
| 20260505054557 | 52 | 360 | 6.1 | 10.4 | 0.00 | 0.00 | 0.00 | 67 | 1002.0 |
| 20260505053052 | 53 | 360 | 7.0 | 12.2 | 0.00 | 0.00 | 0.00 | 64 | 1002.3 |
| 20260505051549 | 55 | 360 | 3.5 | 7.0 | 0.00 | 0.00 | 0.00 | 57 | 1003.1 |
| 20260505041549 | 56 | 360 | 0.9 | 3.5 | 0.00 | 0.00 | 0.00 | 52 | 1001.8 |
| 20260505040047 | 57 | 360 | 0.9 | 7.8 | 0.00 | 0.00 | 0.00 | 53 | 1001.3 |
| 20260505034551 | 58 | 360 | 4.3 | 12.2 | 0.00 | 0.00 | 0.00 | 47 | 1001.1 |
| 20260505033045 | 59 | 360 | 0.0 | 3.5 | 0.00 | 0.00 | 0.00 | 45 | 1001.6 |
| 20260505031554 | 59 | 360 | 1.7 | 8.7 | 0.00 | 0.00 | 0.00 | 44 | 1001.3 |
| 20260505030046 | 60 | 360 | 8.7 | 12.2 | 0.00 | 0.00 | 0.00 | 43 | 1000.9 |
| 20260505024550 | 60 | 360 | 6.1 | 12.2 | 0.00 | 0.00 | 0.00 | 41 | 1000.6 |
| 20260505023046 | 61 | 360 | 5.2 | 12.2 | 0.00 | 0.00 | 0.00 | 40 | 1000.4 |
| 20260505021542 | 62 | 360 | 3.5 | 9.6 | 0.00 | 0.00 | 0.00 | 37 | 999.9 |
| 20260505020042 | 62 | 360 | 5.2 | 11.3 | 0.00 | 0.00 | 0.00 | 36 | 999.5 |
| 20260505014600 | 63 | 360 | 3.5 | 13.9 | 0.00 | 0.00 | 0.00 | 35 | 999.2 |
| 20260505013042 | 63 | 257 | 7.8 | 16.5 | 0.00 | 0.00 | 0.00 | 35 | 999.2 |
| 20260505011548 | 64 | 256 | 7.0 | 15.6 | 0.00 | 0.00 | 0.00 | 36 | 999.3 |
| 20260505010039 | 64 | 238 | 7.8 | 18.2 | 0.00 | 0.00 | 0.00 | 35 | 999.2 |
| 20260505004539 | 65 | 233 | 7.8 | 18.2 | 0.00 | 0.00 | 0.00 | 35 | 999.3 |
| 20260505003037 | 66 | 219 | 6.1 | 9.6 | 0.00 | 0.00 | 0.00 | 30 | 999.5 |
| 20260505001542 | 64 | 247 | 2.6 | 7.8 | 0.00 | 0.00 | 0.00 | 33 | 999.7 |
| 20260505000036 | 64 | 194 | 4.3 | 12.2 | 0.00 | 0.00 | 0.00 | 35 | 999.7 |
| 20260504234536 | 64 | 177 | 5.2 | 20.0 | 0.00 | 0.00 | 0.00 | 36 | 999.5 |
| 20260504233039 | 64 | 221 | 10.4 | 20.9 | 0.00 | 0.00 | 0.00 | 38 | 999.0 |
| 20260504231535 | 63 | 360 | 13.0 | 25.2 | 0.00 | 0.00 | 0.00 | 37 | 999.3 |